Flag for Vietnam Weather past 2 weeks in Hanoi, Vietnam

Now
81 °F

Scattered clouds.


Feels Like: 86 °F
Forecast: 78 / 86 °F
Wind: 8 mph from Northwest

Location: Ha Noi Airport

Current Time: Sep 2, 2015 at 8:09:15 AM

Latest Report: Sep 2, 2015 at 7:30 AM


Visibility: 6 mi

Pressure: 29.71 "Hg

Humidity: 84%

Dew point: 75 °F

Location of HanoiLocation

Historic Weather in Hanoi — Graph

°F

Hanoi temperature yesterday

Maximum temperature yesterday: 91 °F (at 2:00 PM)
Minimum temperature yesterday: 79 °F (at 1:30 AM)
Average temperature yesterday: 83 °F

Past Weeks' High & Low Weather Summary

 TemperatureHumidityPressure
High99 °F (Aug 18, 2:00 PM)100% (Aug 19, 11:00 PM)29.83 "Hg (Aug 19, 11:00 PM)
Low77 °F (Aug 19, 10:30 PM)41% (Aug 22, 6:00 PM)29.50 "Hg (Aug 23, 5:00 PM)
Average86 °F73%29.67 "Hg
* Reported Aug 18 7:00 AM — Sep 2 7:00 AM, Hanoi, Weather by CustomWeather, © 2015

Note: Actual official high and low records may vary slightly from our data, if they occured in-between our weather recording intervals... More about our weather records

Advertising

Hanoi weather history for previous 24 hours

 ConditionsComfort  
Time TempWeatherWind HumidityBarometerVisibility
7:00 AM
Wed, Sep 2
81 °FScattered clouds.7 mph84%29.71 "HgN/A
6:30 AM79 °FPartly sunny.5 mph94%29.71 "Hg4 mi
6:00 AM79 °FClear.5 mph89%29.71 "Hg3 mi
5:30 AM79 °FClear.5 mph89%29.71 "Hg6 mi
4:30 AM81 °FPassing clouds.3 mph89%29.71 "Hg4 mi
4:00 AM81 °FPassing clouds.3 mph89%29.71 "Hg4 mi
3:30 AM79 °FPassing clouds.5 mph94%29.71 "Hg3 mi
3:00 AM81 °FPassing clouds.5 mph84%29.71 "HgN/A
2:30 AM81 °FPassing clouds.1 mph84%29.71 "HgN/A
2:00 AM81 °FPassing clouds.6 mph84%29.71 "HgN/A
1:30 AM81 °FPassing clouds.5 mph84%29.71 "HgN/A
1:00 AM82 °FPassing clouds.1 mph79%29.71 "HgN/A
12:30 AM82 °FPassing clouds.2 mph79%29.74 "HgN/A
12:00 AM82 °FClear.2 mph79%29.74 "Hg4 mi
11:30 PM
Tue, Sep 1
82 °FClear.5 mph84%29.74 "Hg4 mi
11:00 PM82 °FClear.5 mph84%29.74 "Hg3 mi
10:30 PM82 °FClear.3 mph84%29.74 "Hg4 mi
10:00 PM82 °FPassing clouds.5 mph84%29.71 "Hg5 mi
9:30 PM82 °FPassing clouds.6 mph84%29.71 "Hg6 mi
9:00 PM84 °FPassing clouds.6 mph74%29.71 "HgN/A
8:30 PM82 °FPassing clouds.5 mph79%29.68 "HgN/A
8:00 PM82 °FPassing clouds.5 mph84%29.68 "HgN/A
7:30 PM82 °FPassing clouds.5 mph79%29.65 "HgN/A
7:00 PM82 °FPassing clouds.1 mph79%29.65 "HgN/A
6:30 PM82 °FPassing clouds.7 mph79%29.65 "HgN/A
6:00 PM84 °FPartly sunny.3 mph79%29.62 "HgN/A
5:30 PM84 °FBroken clouds.7 mph74%29.62 "HgN/A
5:00 PM90 °FBroken clouds.3 mph59%29.62 "HgN/A
4:30 PM91 °FScattered clouds.3 mph59%29.59 "HgN/A
4:00 PM91 °FPassing clouds.3 mph63%29.62 "HgN/A
3:00 PM88 °FRain. Scattered clouds.13 mph62%29.62 "Hg3 mi
2:00 PM91 °FPassing clouds.6 mph59%29.65 "HgN/A
1:30 PM90 °FScattered clouds.3 mph59%29.65 "HgN/A
1:00 PM86 °FScattered clouds.5 mph70%29.68 "HgN/A
12:30 PM88 °FLight rain. Scattered clouds.2 mph59%29.68 "HgN/A
12:00 PM88 °FLight rain. Partly sunny.5 mph62%29.68 "HgN/A
10:30 AM86 °FPartly sunny.8 mph70%29.71 "HgN/A
10:00 AM88 °FBroken clouds.7 mph66%29.71 "HgN/A
9:30 AM86 °FPartly sunny.7 mph70%29.71 "HgN/A
9:00 AM84 °FBroken clouds.5 mph74%29.71 "HgN/A
8:30 AM82 °FPartly sunny.6 mph74%29.71 "HgN/A
8:00 AM82 °FSunny.3 mph79%29.71 "Hg10 mi
Weather by CustomWeather, © 2015

See weather overviewHow to use our weather pages